Stations météo

Publicité
Dole Tavaux, France (7386): Température de l'air & dewpoint: 12.08.2019 13:00:00 - 18.08.2019 13:00:00 (CEST)Dole Tavaux, France (7386): Température de l'air 5cm: 12.08.2019 13:00:00 - 18.08.2019 13:00:00 (CEST)Dole Tavaux, France (7386): Vitesse du vent & gusts: 12.08.2019 13:00:00 - 18.08.2019 13:00:00 (CEST)Dole Tavaux, France (7386): Direction du vent: 12.08.2019 13:00:00 - 18.08.2019 13:00:00 (CEST)Dole Tavaux, France (7386): reduced air pressure: 12.08.2019 13:00:00 - 18.08.2019 13:00:00 (CEST)Dole Tavaux, France (7386): visibility: 12.08.2019 13:00:00 - 18.08.2019 13:00:00 (CEST)Dole Tavaux, France (7386): Ensoleillement: 12.08.2019 13:00:00 - 18.08.2019 13:00:00 (CEST)Dole Tavaux, France (7386): Quantités de précipitations: 12.08.2019 13:00:00 - 18.08.2019 13:00:00 (CEST)
Date & Time tt [°C] td [°C] tt 5cm [°C] ff [km/h] ff [knt] fx [km/h] fx [knt] dd ppp [hPa] vv [km] sd [min] rr [mm]
18.08.2019 13:00:00 28,7 15,9 28,8 30 16 54 29 SW 1009,5 51 40 0,0
18.08.2019 12:00:00 27,5 15,8 28,2 36 19 61 33 SSW 1009,4 52 40 0,0
18.08.2019 11:00:00 27,1 14,8 28,3 34 18 62 33 SSW 1008,8 57 60 0,0
18.08.2019 10:00:00 25,9 15,0 25,7 31 17 53 28 SSW 1009,0 60 60 0,0
18.08.2019 09:00:00 23,3 15,6 22,9 22 12 37 20 SSW 1009,3 60 60 0,0
18.08.2019 08:00:00 19,7 15,8 15,7 7 4 10 5 SW 1009,9 44 58 0,0
18.08.2019 07:00:00 15,9 14,3 13,4 3 1 6 3 NE 1010,2 41 0 0,0
18.08.2019 06:00:00 16,1 14,8 13,8 3 1 6 3 NNE 1010,3 52 0 0,0
18.08.2019 05:00:00 16,7 14,5 14,4 5 3 10 5 SE 1010,7 58 0 0,0
18.08.2019 04:00:00 17,1 15,4 15,2 3 2 8 5 SE 1011,1 60 0 0,0
18.08.2019 03:00:00 18,4 16,0 16,7 4 2 10 5 SE 1011,7 60 0 0,0
18.08.2019 02:00:00 19,1 16,5 16,6 3 2 13 7 SSE 1011,7 60 0 0,0
18.08.2019 01:00:00 20,2 16,6 18,1 7 4 11 6 S 1011,7 60 0 0,0
18.08.2019 00:00:00 20,5 17,3 18,7 3 2 6 3 SSE 1011,5 60 0 0,0
17.08.2019 23:00:00 21,2 17,2 19,5 5 3 12 7 S 1011,0 59 0 0,0
17.08.2019 22:00:00 22,5 17,2 19,7 10 5 16 9 NNW 1010,9 60 0 0,0
17.08.2019 21:00:00 23,1 16,9 20,4 4 2 10 6 E 1010,3 60 22 0,0
17.08.2019 20:00:00 25,8 15,8 25,3 9 5 13 7 SE 1010,4 60 16 0,0
17.08.2019 19:00:00 26,7 15,1 26,2 8 4 19 10 SSE 1010,7 59 0 0,0
17.08.2019 18:00:00 27,4 13,7 27,3 12 6 24 13 SSW 1011,4 57 8 0,0
17.08.2019 17:00:00 26,7 13,8 26,8 16 9 31 17 SSW 1011,6 60 0 0,0
17.08.2019 16:00:00 26,2 13,7 26,1 18 10 32 18 S 1012,1 60 0 0,0
17.08.2019 15:00:00 26,6 13,7 26,8 22 12 37 20 SSW 1012,5 60 8 0,0
17.08.2019 14:00:00 26,9 11,8 27,5 19 10 32 18 SSW 1012,6 55 4 0,0
17.08.2019 13:00:00 26,0 13,1 27,4 15 8 29 15 S 1013,6 54 24 0,0
17.08.2019 12:00:00 24,9 13,8 25,3 12 7 23 13 SSW 1014,1 58 25 0,0
17.08.2019 11:00:00 23,6 14,0 24,6 14 7 22 12 S 1014,5 57 41 0,0
17.08.2019 10:00:00 22,2 14,6 20,3 14 7 22 12 SSW 1014,9 60 37 0,0
17.08.2019 09:00:00 19,5 14,5 18,4 12 6 20 11 S 1015,1 57 11 0,0
17.08.2019 08:00:00 17,5 14,2 14,7 10 5 16 8 S 1014,9 59 15 0,0
17.08.2019 07:00:00 16,1 13,4 14,1 3 2 13 7 ESE 1014,8 60 0 0,0
17.08.2019 06:00:00 15,2 13,6 13,7 4 2 14 7 S 1014,6 58 0 0,0
17.08.2019 05:00:00 15,1 13,6 13,2 6 3 10 5 S 1014,6 49 0 0,0
17.08.2019 04:00:00 14,7 13,4 12,7 2 1 6 4 E 1014,7 41 0 0,0
17.08.2019 03:00:00 14,0 12,9 12,7 5 3 8 5 ENE 1014,7 39 0 0,0
17.08.2019 02:00:00 14,4 13,1 13,2 5 3 8 4 ENE 1014,9 55 0 0,0
17.08.2019 01:00:00 15,2 12,9 13,3 5 3 10 5 E 1015,2 50 0 0,0
17.08.2019 00:00:00 16,1 13,2 14,1 5 3 8 5 E 1015,2 57 0 0,0
16.08.2019 23:00:00 17,6 12,7 15,1 4 2 12 7 NE 1015,5 60 0 0,0
16.08.2019 22:00:00 18,2 12,6 15,8 8 4 12 7 SSE 1015,3 60 0 0,0
16.08.2019 21:00:00 19,9 12,2 17,5 11 6 14 7 S 1015,0 60 0 0,0
16.08.2019 20:00:00 21,9 12,7 21,0 11 6 16 9 SSW 1015,2 60 4 0,0
16.08.2019 19:00:00 24,3 11,9 23,9 10 5 22 12 S 1014,8 60 41 0,0
16.08.2019 18:00:00 24,3 11,6 24,7 10 5 21 12 SW 1015,3 60 46 0,0
16.08.2019 17:00:00 25,2 12,4 29,0 5 3 18 10 SSW 1016,0 60 56 0,0
16.08.2019 16:00:00 24,8 12,4 28,7 8 4 21 12 S 1016,5 59 56 0,0
16.08.2019 15:00:00 23,3 12,6 25,3 7 4 17 9 NE 1017,3 46 24 0,0
16.08.2019 14:00:00 23,7 12,7 26,0 5 3 18 10 SSE 1017,8 57 37 0,0
16.08.2019 13:00:00 23,2 13,4 27,1 5 3 19 10 N 1018,2 56 41 0,0
16.08.2019 12:00:00 21,9 13,5 25,7 5 3 22 12 NE 1018,5 42 60 0,0
16.08.2019 11:00:00 20,3 12,5 24,0 6 4 15 8 E 1019,2 53 60 0,0
16.08.2019 10:00:00 19,1 13,7 20,3 5 3 11 6 E 1020,3 60 39 0,0
16.08.2019 09:00:00 17,5 13,4 17,8 4 2 7 4 ESE 1020,5 49 60 0,0
16.08.2019 08:00:00 14,3 13,3 10,2 3 2 7 4 ENE 1020,7 33 48 0,0
16.08.2019 07:00:00 11,8 11,3 10,0 5 3 8 5 ENE 1020,7 19 0 0,0
16.08.2019 06:00:00 12,6 12,3 9,9 4 2 8 4 ESE 1020,6 34 0 0,0
16.08.2019 05:00:00 12,4 11,3 9,9 4 2 4 2 E 1020,9 4,8 0 0,0
16.08.2019 04:00:00 13,2 12,6 10,5 2 1 6 3 E 1020,9 44 0 0,0
16.08.2019 03:00:00 13,6 12,2 11,5 3 1 5 3 ESE 1021,1 56 0 0,0
16.08.2019 02:00:00 15,2 13,4 13,3 4 2 8 4 SSE 1021,0 50 0 0,0
16.08.2019 01:00:00 16,0 13,7 14,4 5 3 8 5 SSE 1021,0 60 0 0,0
16.08.2019 00:00:00 16,3 13,8 14,6 4 2 12 6 S 1021,0 60 0 0,0
15.08.2019 23:00:00 16,3 13,0 14,1 7 4 9 5 WSW 1020,5 60 0 0,0
15.08.2019 22:00:00 17,0 12,9 14,5 8 4 9 5 SSW 1020,2 60 0 0,0
15.08.2019 21:00:00 19,2 12,2 17,0 6 4 23 12 SW 1019,4 60 26 0,0
15.08.2019 20:00:00 21,9 11,9 21,8 17 9 35 19 W 1018,7 59 60 0,0
15.08.2019 19:00:00 22,4 12,1 22,8 23 12 39 21 W 1018,3 55 37 0,0
15.08.2019 18:00:00 22,8 11,8 23,9 21 12 42 23 W 1017,9 60 39 0,0
15.08.2019 17:00:00 23,1 12,1 23,5 23 12 38 20 W 1017,6 50 3 0,0
15.08.2019 16:00:00 23,8 11,1 23,8 29 16 45 24 WSW 1017,3 60 16 0,0
15.08.2019 15:00:00 22,9 11,3 23,5 26 14 47 25 SW 1017,2 53 31 0,0
15.08.2019 14:00:00 22,4 13,7 21,9 29 16 42 23 SW 1017,1 60 22 0,0
15.08.2019 13:00:00 20,1 16,1 19,7 22 12 31 17 S 1017,4 60 4 0,0
15.08.2019 12:00:00 19,4 16,1 18,7 18 10 35 19 SSW 1017,3 55 13 0,0
15.08.2019 11:00:00 18,0 16,8 16,1 16 9 26 14 SW 1017,3 45 0 1,8
15.08.2019 10:00:00 16,7 15,6 16,0 21 11 31 17 WSW 1017,3 3,0 0 0,6
15.08.2019 09:00:00 16,9 15,1 16,0 4 2 15 8 SSE 1016,8 60 0 0,0
15.08.2019 08:00:00 16,0 14,9 14,6 8 5 24 13 SSE 1016,4 48 0 0,2
15.08.2019 07:00:00 15,8 13,8 14,6 18 10 27 15 SW 1016,7 2,9 0 0,6
15.08.2019 06:00:00 16,2 13,1 15,5 9 5 15 8 SSW 1016,0 50 0 0,0
15.08.2019 05:00:00 16,2 12,7 15,0 6 4 13 7 S 1016,0 60 0 0,0
15.08.2019 04:00:00 15,3 13,5 14,8 3 2 6 3 S 1016,5 60 0 0,0
15.08.2019 03:00:00 15,2 13,6 - 4 2 8 4 SE 1016,5 60 - 0,0
15.08.2019 02:00:00 14,6 13,3 12,2 3 2 7 4 E 1017,0 60 0 0,0
15.08.2019 01:00:00 13,5 12,1 12,2 3 2 8 4 ENE 1017,2 60 0 0,0
15.08.2019 00:00:00 13,7 12,1 12,4 6 3 6 4 E 1017,1 60 0 0,0
14.08.2019 23:00:00 15,1 12,8 13,2 5 3 7 4 E 1016,9 60 0 0,0
14.08.2019 22:00:00 18,2 12,9 13,8 2 1 9 5 SE 1016,9 17 0 0,0
14.08.2019 21:00:00 20,8 11,7 16,0 7 4 9 5 ESE 1016,3 60 27 0,0
14.08.2019 20:00:00 23,2 9,9 23,5 4 2 14 7 SE 1016,2 60 60 0,0
14.08.2019 19:00:00 23,9 10,9 25,9 6 3 18 10 NW 1016,4 59 60 0,0
14.08.2019 18:00:00 24,4 11,4 27,7 9 5 21 11 NW 1016,6 60 60 0,0
14.08.2019 17:00:00 24,0 9,2 28,2 5 3 24 13 SE 1017,1 58 60 0,0
14.08.2019 16:00:00 24,2 9,4 29,1 5 3 21 11 E 1017,6 53 60 0,0
14.08.2019 15:00:00 24,1 10,0 28,9 10 5 19 10 NE 1018,2 60 60 0,0
14.08.2019 14:00:00 22,7 9,5 27,1 8 4 25 13 NNW 1018,8 50 58 0,0
14.08.2019 13:00:00 22,2 10,0 27,4 8 4 16 9 NNE 1019,3 45 60 0,0
14.08.2019 12:00:00 21,2 9,1 26,7 6 4 16 9 ESE 1019,9 52 60 0,0
14.08.2019 11:00:00 20,1 10,8 24,5 3 2 10 5 ESE 1020,5 53 60 0,0
14.08.2019 10:00:00 18,1 10,5 21,2 3 2 8 4 NW 1020,8 46 60 0,0
14.08.2019 09:00:00 16,3 12,1 15,9 3 1 9 5 NNW 1020,8 49 60 0,0
14.08.2019 08:00:00 12,3 11,2 9,3 5 3 8 4 NE 1021,0 35 60 0,0
14.08.2019 07:00:00 9,0 8,7 6,8 6 4 10 5 E 1021,0 29 3 0,0
14.08.2019 06:00:00 9,6 9,3 6,9 2 1 8 5 NE 1020,7 35 0 0,0
14.08.2019 05:00:00 9,4 8,9 7,6 7 4 11 6 ENE 1020,8 31 0 0,0
14.08.2019 04:00:00 10,2 9,7 8,2 8 4 10 5 E 1021,1 32 0 0,0
14.08.2019 03:00:00 - - - - - - - - - - - -
14.08.2019 02:00:00 10,6 10,0 8,8 5 3 8 4 E 1021,3 35 0 0,0
14.08.2019 01:00:00 12,1 10,3 9,6 3 2 7 4 ESE 1021,3 55 0 0,0
14.08.2019 00:00:00 14,7 9,1 10,3 2 1 12 7 E 1021,0 60 0 0,0
13.08.2019 23:00:00 16,4 9,3 13,2 10 5 18 10 NW 1020,6 60 0 0,0
13.08.2019 22:00:00 16,0 11,4 13,4 5 3 6 3 NNE 1020,4 60 0 0,0
13.08.2019 21:00:00 18,0 11,5 15,2 4 2 8 4 ESE 1019,7 60 0 0,0
13.08.2019 20:00:00 20,6 7,6 18,7 4 2 14 8 N 1019,4 60 24 0,0
13.08.2019 19:00:00 21,4 8,0 22,3 5 3 16 9 N 1019,3 60 39 0,0
13.08.2019 18:00:00 21,7 8,2 23,3 6 3 23 12 NW 1019,2 57 46 0,0
13.08.2019 17:00:00 22,0 10,2 24,8 9 5 26 14 N 1019,4 48 60 0,0
13.08.2019 16:00:00 20,7 10,2 24,0 11 6 22 12 NNE 1019,8 59 46 0,0
13.08.2019 15:00:00 20,8 8,8 21,5 5 3 25 14 NW 1020,1 60 33 0,0
13.08.2019 14:00:00 19,9 10,3 23,6 7 4 24 13 NNE 1020,8 60 39 0,0
13.08.2019 13:00:00 19,2 11,5 21,5 9 5 29 16 NNW 1021,1 57 34 0,0
13.08.2019 12:00:00 18,4 10,0 21,3 7 4 23 12 N 1021,6 60 38 0,0
13.08.2019 11:00:00 17,2 11,9 19,3 6 3 19 10 N 1021,8 60 28 0,0
13.08.2019 10:00:00 16,7 12,2 18,0 10 6 18 10 N 1022,0 59 53 0,0
13.08.2019 09:00:00 14,8 11,9 14,4 3 1 10 5 NNW 1022,5 53 40 0,0
13.08.2019 08:00:00 12,8 11,9 9,9 5 3 8 4 S 1022,4 47 13 0,0
13.08.2019 07:00:00 10,7 9,5 9,2 4 2 8 4 W 1021,9 55 4 0,0
13.08.2019 06:00:00 11,7 11,1 9,1 0 0 5 3 N 1021,3 34 0 0,0
13.08.2019 05:00:00 12,9 11,6 - 0 0 5 3 N 1020,9 55 - -
13.08.2019 04:00:00 13,5 11,9 11,7 4 2 6 3 NW 1020,8 60 0 0,0
13.08.2019 03:00:00 14,4 12,6 13,6 3 2 9 5 NE 1020,7 60 0 0,0
13.08.2019 02:00:00 14,0 12,6 12,5 8 4 13 7 S 1020,8 60 0 0,0
13.08.2019 01:00:00 14,6 12,3 12,5 6 3 8 4 SSW 1020,5 60 0 0,0
13.08.2019 00:00:00 16,3 11,0 13,0 5 3 22 12 N 1020,0 60 0 0,0
12.08.2019 23:00:00 17,6 10,7 16,3 16 8 26 14 NNW 1019,3 60 0 0,0
12.08.2019 22:00:00 19,9 10,9 17,9 8 4 10 6 NW 1018,8 60 0 0,0
12.08.2019 21:00:00 20,0 9,8 18,0 9 5 22 12 W 1018,1 60 22 0,0
12.08.2019 20:00:00 22,0 10,5 21,6 14 8 29 15 WNW 1017,2 59 47 0,0
12.08.2019 19:00:00 23,1 11,2 23,1 16 9 36 20 W 1016,3 60 47 0,0
12.08.2019 18:00:00 23,1 12,4 23,3 20 11 32 18 SW 1016,0 20 43 0,0
12.08.2019 17:00:00 23,0 13,5 23,0 13 7 30 16 SSW 1016,2 60 41 0,0
12.08.2019 16:00:00 22,1 12,6 25,3 11 6 33 18 S 1016,7 56 56 0,0
12.08.2019 15:00:00 21,7 12,8 26,7 11 6 34 18 SSW 1017,3 55 58 0,0
12.08.2019 14:00:00 20,9 13,6 23,8 6 4 18 10 SW 1017,7 60 56 0,0
12.08.2019 13:00:00 19,7 14,5 20,7 6 3 16 9 SSW 1018,1 60 34 0,0

tt = Température de l'air
td = dewpoint
tt 5cm = Température de l'air 5cm
ff = Vitesse du vent
fx = gusts
dd = Direction du vent
ppp = reduced air pressure
vv = visibility
sd = Ensoleillement
rr = Quantités de précipitations

stations d'obs. à proximité